| time (UTC) | temp F | wind direction | speed knots | gust knots | rain 1hr in | rain 24hr in | rain mn in | humidity % | barometer mb |
| 20260504060152 | 36 | 70 | 0.0 | 0.0 | 0.00 | 0.00 | 0.00 | ||
| 20260504050549 | 36 | 70 | 0.0 | 0.0 | 0.00 | 0.00 | 0.00 | ||
| 20260504045538 | 37 | 70 | 0.0 | 0.0 | 0.00 | 0.00 | 0.00 | ||
| 20260504045030 | 37 | 70 | 0.0 | 0.0 | 0.00 | 0.00 | 0.00 | ||
| 20260504044525 | 37 | 70 | 0.0 | 0.0 | 0.00 | 0.00 | 0.00 | ||
| 20260504044020 | 37 | 70 | 0.0 | 0.0 | 0.00 | 0.00 | 0.00 | ||
| 20260504043515 | 37 | 70 | 0.0 | 0.0 | 0.00 | 0.00 | 0.00 | ||
| 20260504043009 | 37 | 70 | 0.0 | 0.0 | 0.00 | 0.00 | 0.00 | ||
| 20260504042504 | 37 | 70 | 0.0 | 0.0 | 0.00 | 0.00 | 0.00 | ||
| 20260504041956 | 36 | 70 | 0.0 | 1.7 | 0.00 | 0.00 | 0.00 | ||
| 20260504041451 | 36 | 70 | 0.0 | 0.0 | 0.00 | 0.00 | 0.00 | ||
| 20260504040441 | 37 | 104 | 0.0 | 0.0 | 0.00 | 0.00 | 0.00 | ||
| 20260504035935 | 39 | 104 | 0.0 | 0.0 | 0.00 | 0.00 | 0.00 | ||
| 20260504035430 | 38 | 104 | 0.0 | 0.0 | 0.00 | 0.00 | 0.00 | ||
| 20260504034416 | 37 | 104 | 0.0 | 0.0 | 0.00 | 0.00 | 0.00 | ||
| 20260504033911 | 38 | 104 | 0.0 | 0.0 | 0.00 | 0.00 | 0.00 | ||
| 20260504033406 | 40 | 104 | 0.0 | 0.0 | 0.00 | 0.00 | 0.00 | ||
| 20260504032901 | 40 | 104 | 0.0 | 0.0 | 0.00 | 0.00 | 0.00 | ||
| 20260504032356 | 40 | 104 | 0.0 | 0.0 | 0.00 | 0.00 | 0.00 | ||
| 20260504031848 | 40 | 104 | 0.0 | 0.0 | 0.00 | 0.00 | 0.00 | ||
| 20260504031342 | 41 | 104 | 0.0 | 1.7 | 0.00 | 0.00 | 0.00 | ||
| 20260504030837 | 39 | 104 | 0.9 | 1.7 | 0.00 | 0.00 | 0.00 | ||
| 20260504030332 | 41 | 219 | 0.0 | 0.0 | 0.00 | 0.00 | 0.00 | ||
| 20260504025827 | 41 | 219 | 0.0 | 0.0 | 0.00 | 0.00 | 0.00 | ||
| 20260504025322 | 40 | 219 | 0.0 | 0.0 | 0.00 | 0.00 | 0.00 | ||
| 20260504024814 | 41 | 219 | 0.0 | 0.0 | 0.00 | 0.00 | 0.00 | ||
| 20260504024309 | 40 | 219 | 0.0 | 0.0 | 0.00 | 0.00 | 0.00 | ||
| 20260504023804 | 41 | 219 | 0.0 | 0.0 | 0.00 | 0.00 | 0.00 | ||
| 20260504022754 | 40 | 219 | 0.0 | 0.0 | 0.00 | 0.00 | 0.00 | ||
| 20260504022249 | 40 | 219 | 0.0 | 0.0 | 0.00 | 0.00 | 0.00 | ||
| 20260504021741 | 42 | 219 | 0.0 | 0.0 | 0.00 | 0.00 | 0.00 | ||
| 20260504021237 | 42 | 219 | 0.0 | 0.0 | 0.00 | 0.00 | 0.00 | ||
| 20260504020732 | 41 | 219 | 0.0 | 0.0 | 0.00 | 0.00 | 0.00 | ||
| 20260504020227 | 43 | 219 | 0.0 | 0.0 | 0.00 | 0.00 | 0.00 | ||
| 20260504015722 | 42 | 219 | 0.0 | 0.0 | 0.00 | 0.00 | 0.00 | ||
| 20260504015217 | 43 | 219 | 0.0 | 0.0 | 0.00 | 0.00 | 0.00 | ||
| 20260504014709 | 43 | 219 | 0.0 | 0.0 | 0.00 | 0.00 | 0.00 | ||
| 20260504014204 | 43 | 219 | 0.0 | 0.0 | 0.00 | 0.00 | 0.00 | ||
| 20260504013659 | 44 | 219 | 0.0 | 0.0 | 0.00 | 0.00 | 0.00 | ||
| 20260504013154 | 44 | 219 | 0.0 | 0.0 | 0.00 | 0.00 | 0.00 | ||
| 20260504012144 | 45 | 219 | 0.0 | 0.0 | 0.00 | 0.00 | 0.00 | ||
| 20260504011131 | 45 | 219 | 0.0 | 0.0 | 0.00 | 0.00 | 0.00 | ||
| 20260504010626 | 47 | 219 | 0.0 | 0.0 | 0.00 | 0.00 | 0.00 | ||
| 20260504010121 | 47 | 219 | 0.0 | 0.0 | 0.00 | 0.00 | 0.00 | ||
| 20260504005616 | 46 | 219 | 0.0 | 0.0 | 0.00 | 0.00 | 0.00 | ||
| 20260504005111 | 47 | 219 | 0.0 | 0.0 | 0.00 | 0.00 | 0.00 | ||
| 20260504004603 | 47 | 219 | 0.0 | 0.0 | 0.00 | 0.00 | 0.00 | ||
| 20260504004058 | 49 | 219 | 0.0 | 0.0 | 0.00 | 0.00 | 0.00 | ||
| 20260504003553 | 49 | 219 | 0.0 | 0.0 | 0.00 | 0.00 | 0.00 | ||
| 20260504003048 | 49 | 219 | 0.0 | 0.0 | 0.00 | 0.00 | 0.00 | ||
| 20260504002543 | 50 | 219 | 0.0 | 0.0 | 0.00 | 0.00 | 0.00 | ||
| 20260504002039 | 51 | 219 | 0.0 | 0.0 | 0.00 | 0.00 | 0.00 | ||
| 20260504001531 | 53 | 219 | 0.0 | 0.0 | 0.00 | 0.00 | 0.00 | ||
| 20260504001026 | 53 | 219 | 0.0 | 0.0 | 0.00 | 0.00 | 0.00 | ||
| 20260504000521 | 53 | 219 | 0.0 | 0.0 | 0.00 | 0.00 | 0.00 | ||
| 20260504000016 | 55 | 219 | 0.0 | 0.0 | 0.00 | 0.00 | 0.00 | ||
| 20260503235512 | 56 | 219 | 0.0 | 0.0 | 0.00 | 0.00 | 0.00 | ||
| 20260503235007 | 56 | 219 | 0.0 | 2.6 | 0.00 | 0.00 | 0.00 | ||
| 20260503233954 | 58 | 266 | 3.5 | 4.3 | 0.00 | 0.00 | 0.00 | ||
| 20260503233449 | 60 | 280 | 1.7 | 6.1 | 0.00 | 0.00 | 0.00 | ||
| 20260503232945 | 60 | 266 | 2.6 | 7.0 | 0.00 | 0.00 | 0.00 | ||
| 20260503232440 | 61 | 263 | 1.7 | 7.8 | 0.00 | 0.00 | 0.00 | ||
| 20260503231935 | 62 | 285 | 3.5 | 8.7 | 0.00 | 0.00 | 0.00 | ||
| 20260503231428 | 61 | 291 | 7.0 | 8.7 | 0.00 | 0.00 | 0.00 | ||
| 20260503230923 | 62 | 269 | 3.5 | 8.7 | 0.00 | 0.00 | 0.00 | ||
| 20260503230418 | 62 | 277 | 7.0 | 13.0 | 0.00 | 0.00 | 0.00 | ||
| 20260503225914 | 62 | 287 | 6.1 | 9.6 | 0.00 | 0.00 | 0.00 | ||
| 20260503225409 | 63 | 259 | 7.0 | 9.6 | 0.00 | 0.00 | 0.00 | ||
| 20260503224903 | 63 | 302 | 5.2 | 10.4 | 0.00 | 0.00 | 0.00 | ||
| 20260503224356 | 65 | 291 | 5.2 | 7.8 | 0.00 | 0.00 | 0.00 | ||
| 20260503223851 | 64 | 266 | 4.3 | 8.7 | 0.00 | 0.00 | 0.00 | ||
| 20260503223346 | 64 | 250 | 4.3 | 11.3 | 0.00 | 0.00 | 0.00 | ||
| 20260503222841 | 64 | 290 | 2.6 | 8.7 | 0.00 | 0.00 | 0.00 | ||
| 20260503222336 | 66 | 253 | 6.1 | 11.3 | 0.00 | 0.00 | 0.00 | ||
| 20260503221832 | 67 | 294 | 4.3 | 5.2 | 0.00 | 0.00 | 0.00 | ||
| 20260503221324 | 66 | 309 | 4.3 | 10.4 | 0.00 | 0.00 | 0.00 | ||
| 20260503220820 | 65 | 274 | 1.7 | 7.0 | 0.00 | 0.00 | 0.00 | ||
| 20260503220316 | 67 | 266 | 4.3 | 8.7 | 0.00 | 0.00 | 0.00 | ||
| 20260503215811 | 66 | 294 | 5.2 | 15.6 | 0.00 | 0.00 | 0.00 | ||
| 20260503215306 | 65 | 308 | 2.6 | 13.0 | 0.00 | 0.00 | 0.00 | ||
| 20260503214254 | 66 | 274 | 2.6 | 8.7 | 0.00 | 0.00 | 0.00 | ||
| 20260503213749 | 64 | 252 | 7.0 | 12.2 | 0.00 | 0.00 | 0.00 | ||
| 20260503213245 | 66 | 257 | 10.4 | 13.0 | 0.00 | 0.00 | 0.00 | ||
| 20260503212740 | 67 | 264 | 1.7 | 10.4 | 0.00 | 0.00 | 0.00 | ||
| 20260503212236 | 66 | 274 | 10.4 | 16.5 | 0.00 | 0.00 | 0.00 | ||
| 20260503211731 | 65 | 236 | 15.6 | 13.9 | 0.00 | 0.00 | 0.00 | ||
| 20260503211224 | 66 | 273 | 12.2 | 13.0 | 0.00 | 0.00 | 0.00 | ||
| 20260503210719 | 67 | 248 | 4.3 | 8.7 | 0.00 | 0.00 | 0.00 | ||
| 20260503210215 | 66 | 280 | 7.0 | 12.2 | 0.00 | 0.00 | 0.00 | ||
| 20260503205710 | 69 | 267 | 9.6 | 8.7 | 0.00 | 0.00 | 0.00 | ||
| 20260503205206 | 67 | 11 | 0.9 | 10.4 | 0.00 | 0.00 | 0.00 | ||
| 20260503204701 | 67 | 269 | 10.4 | 12.2 | 0.00 | 0.00 | 0.00 | ||
| 20260503204154 | 66 | 312 | 3.5 | 11.3 | 0.00 | 0.00 | 0.00 | ||
| 20260503203649 | 65 | 276 | 6.1 | 13.9 | 0.00 | 0.00 | 0.00 | ||
| 20260503203144 | 66 | 281 | 11.3 | 15.6 | 0.00 | 0.00 | 0.00 | ||
| 20260503202135 | 68 | 260 | 7.0 | 11.3 | 0.00 | 0.00 | 0.00 | ||
| 20260503201631 | 68 | 314 | 2.6 | 7.8 | 0.00 | 0.00 | 0.00 | ||
| 20260503201123 | 67 | 308 | 6.1 | 10.4 | 0.00 | 0.00 | 0.00 | ||
| 20260503200619 | 64 | 255 | 8.7 | 9.6 | 0.00 | 0.00 | 0.00 | ||
| 20260503200114 | 65 | 277 | 6.1 | 15.6 | 0.00 | 0.00 | 0.00 | ||
| 20260503195610 | 65 | 264 | 8.7 | 11.3 | 0.00 | 0.00 | 0.00 | ||
| 20260503195105 | 66 | 233 | 9.6 | 8.7 | 0.00 | 0.00 | 0.00 | ||
| 20260503194601 | 67 | 215 | 1.7 | 13.0 | 0.00 | 0.00 | 0.00 | ||
| 20260503194053 | 68 | 288 | 1.7 | 11.3 | 0.00 | 0.00 | 0.00 | ||
| 20260503193548 | 65 | 323 | 4.3 | 18.2 | 0.00 | 0.00 | 0.00 | ||
| 20260503193044 | 62 | 283 | 7.0 | 15.6 | 0.00 | 0.00 | 0.00 | ||
| 20260503192539 | 64 | 249 | 10.4 | 17.4 | 0.00 | 0.00 | 0.00 | ||
| 20260503192034 | 65 | 284 | 7.8 | 17.4 | 0.00 | 0.00 | 0.00 | ||
| 20260503191530 | 66 | 357 | 0.9 | 16.5 | 0.00 | 0.00 | 0.00 | ||
| 20260503191022 | 65 | 245 | 5.2 | 13.0 | 0.00 | 0.00 | 0.00 | ||
| 20260503190518 | 67 | 297 | 7.0 | 17.4 | 0.00 | 0.00 | 0.00 | ||
| 20260503190013 | 64 | 300 | 6.1 | 10.4 | 0.00 | 0.00 | 0.00 | ||
| 20260503185508 | 65 | 287 | 5.2 | 9.6 | 0.00 | 0.00 | 0.00 | ||
| 20260503185004 | 68 | 253 | 7.0 | 10.4 | 0.00 | 0.00 | 0.00 | ||
| 20260503183952 | 65 | 345 | 10.4 | 14.8 | 0.00 | 0.00 | 0.00 | ||
| 20260503183447 | 62 | 285 | 9.6 | 20.0 | 0.00 | 0.00 | 0.00 | ||
| 20260503182942 | 62 | 300 | 3.5 | 21.7 | 0.00 | 0.00 | 0.00 | ||
| 20260503182438 | 65 | 287 | 8.7 | 11.3 | 0.00 | 0.00 | 0.00 | ||
| 20260503181933 | 63 | 297 | 4.3 | 17.4 | 0.00 | 0.00 | 0.00 | ||
| 20260503181429 | 62 | 266 | 9.6 | 13.9 | 0.00 | 0.00 | 0.00 | ||
| 20260503180921 | 62 | 318 | 4.3 | 18.2 | 0.00 | 0.00 | 0.00 | ||
| 20260503180416 | 60 | 298 | 10.4 | 22.6 | 0.00 | 0.00 | 0.00 | ||
| 20260503175911 | 60 | 264 | 11.3 | 15.6 | 0.00 | 0.00 | 0.00 | ||
| 20260503175407 | 59 | 197 | 9.6 | 18.2 | 0.00 | 0.00 | 0.00 | ||
| 20260503174902 | 62 | 280 | 11.3 | 13.9 | 0.00 | 0.00 | 0.00 | ||
| 20260503174357 | 59 | 283 | 5.2 | 11.3 | 0.00 | 0.00 | 0.00 | ||
| 20260503173850 | 61 | 226 | 7.0 | 13.0 | 0.00 | 0.00 | 0.00 | ||
| 20260503173345 | 60 | 284 | 7.0 | 13.9 | 0.00 | 0.00 | 0.00 | ||
| 20260503172840 | 59 | 277 | 9.6 | 15.6 | 0.00 | 0.00 | 0.00 | ||
| 20260503172336 | 62 | 295 | 9.6 | 13.9 | 0.00 | 0.00 | 0.00 | ||
| 20260503171830 | 59 | 271 | 8.7 | 17.4 | 0.00 | 0.00 | 0.00 | ||
| 20260503171325 | 61 | 308 | 9.6 | 13.9 | 0.00 | 0.00 | 0.00 | ||
| 20260503170818 | 62 | 297 | 0.0 | 8.7 | 0.00 | 0.00 | 0.00 | ||
| 20260503170313 | 58 | 24 | 0.9 | 19.1 | 0.00 | 0.00 | 0.00 | ||
| 20260503160210 | 56 | 345 | 2.6 | 8.7 | 0.00 | 0.00 | 0.00 | ||
| 20260503150612 | 57 | 290 | 4.3 | 13.9 | 0.00 | 0.00 | 0.00 | ||
| 20260503150107 | 56 | 297 | 4.3 | 13.9 | 0.00 | 0.00 | 0.00 | ||
| 20260503131417 | 46 | 284 | 5.2 | 18.2 | 0.00 | 0.00 | 0.00 | ||
| 20260503130912 | 46 | 264 | 14.8 | 19.1 | 0.00 | 0.00 | 0.00 | ||
| 20260503130404 | 46 | 288 | 14.8 | 19.1 | 0.00 | 0.00 | 0.00 | ||
| 20260503110657 | 39 | 277 | 1.7 | 10.4 | 0.00 | 0.00 | 0.00 | ||
| 20260503110149 | 40 | 309 | 7.0 | 8.7 | 0.00 | 0.00 | 0.00 | ||
| 20260503090440 | 37 | 278 | 1.7 | 6.1 | 0.00 | 0.00 | 0.00 | ||
| 20260503081343 | 40 | 266 | 7.0 | 7.8 | 0.00 | 0.00 | 0.00 | ||
| 20260503080838 | 40 | 298 | 4.3 | 7.0 | 0.00 | 0.00 | 0.00 | ||
| 20260503080333 | 40 | 321 | 0.9 | 7.8 | 0.00 | 0.00 | 0.00 | ||
| 20260503072752 | 41 | 346 | 0.9 | 7.0 | 0.00 | 0.00 | 0.00 | ||
| 20260503072246 | 41 | 288 | 3.5 | 7.8 | 0.00 | 0.00 | 0.00 | ||
| 20260503071741 | 41 | 308 | 1.7 | 5.2 | 0.00 | 0.00 | 0.00 | ||
| 20260503071236 | 42 | 294 | 1.7 | 5.2 | 0.00 | 0.00 | 0.00 | ||
| 20260503070226 | 42 | 302 | 3.5 | 5.2 | 0.00 | 0.00 | 0.00 |